Flight Track Log - Related Links

Times and Time Zones

All times are in EDT time to prevent confusion due to time zone crossing. See the FLG4058 flight status page for this flight to view local times or setup timezone preferences in your user account.

Time Position Orientation Groundspeed Altitude Reporting Facility
EDT Latitude Longitude Course Direction KTS MPH feet Rate Location/Type
Thu 08:49:58 AM 42.1639 -83.3678 207° Southwest 203 234 30,000  Level Cleveland Center
Thu 08:50:58 AM 42.0986 -83.3872 192° South 254 292 4,500 -11,400 Descending Cleveland Center
Thu 08:51:58 AM 42.0231 -83.4092 192° South 276 318 7,200 3,000 Climbing Cleveland Center
Thu 08:52:00 AM 41.7837 -83.5434 200° South  Level Estimated
Thu 08:52:14 AM 42.0083 -83.4197 208° Southwest 279 321 8,300  Level Cleveland Center
Thu 08:52:58 AM 41.9492 -83.4450 198° South 288 331 10,100 2,164 Climbing Cleveland Center
Thu 08:53:00 AM 41.6765 -83.5906 180° South  Level Estimated
Thu 08:53:15 AM 41.9344 -83.4556 208° Southwest 298 343 10,500  Level Cleveland Center
Thu 08:53:58 AM 41.8711 -83.4806 196° South 321 369 11,800 1,922 Climbing Cleveland Center
Thu 08:54:00 AM 41.5693 -83.6375 194° South  Level Estimated
Thu 08:54:58 AM 41.7783 -83.5236 199° South 334 384 13,800  Level Cleveland Center
Thu 08:55:00 AM 41.4620 -83.6843 207° Southwest  Level Estimated
Thu 08:55:58 AM 41.6897 -83.5669 200° South 344 396 15,700  Level Cleveland Center
Thu 08:56:58 AM 41.5889 -83.5983 193° South 360 414 17,200 1,450 Climbing Cleveland Center
Thu 08:57:58 AM 41.4817 -83.6294 192° South 378 435 18,600 1,350 Climbing Cleveland Center
Thu 08:58:58 AM 41.3819 -83.6939 206° Southwest 393 452 19,900 1,350 Climbing Cleveland Center
Thu 08:59:58 AM 41.2800 -83.7636 207° Southwest 400 460 21,300 1,400 Climbing Cleveland Center
Thu 09:00:58 AM 41.1861 -83.8336 209° Southwest 400 460 22,700 1,200 Climbing Cleveland Center
Thu 09:01:58 AM 41.0883 -83.9031 208° Southwest 405 466 23,700 891 Climbing Cleveland Center
Thu 09:02:39 AM 41.0175 -83.9525 208° Southwest 408 470 24,200 816 Climbing Indianapolis Center
Thu 09:03:41 AM 40.9156 -84.0258 209° Southwest 414 476 25,100 823 Climbing Indianapolis Center
Thu 09:04:43 AM 40.8131 -84.0989 208° Southwest 416 479 25,900 677 Climbing Indianapolis Center
Thu 09:05:45 AM 40.7086 -84.1728 208° Southwest 422 486 26,500 532 Climbing Indianapolis Center
Thu 09:06:47 AM 40.6022 -84.2478 208° Southwest 430 495 27,000 484 Climbing Indianapolis Center
Thu 09:07:49 AM 40.4944 -84.3244 208° Southwest 436 502 27,500 532 Climbing Indianapolis Center
Thu 09:08:51 AM 40.3681 -84.4136 208° Southwest 440 506 28,100 537 Climbing Indianapolis Center
Thu 09:09:52 AM 40.2583 -84.4897 208° Southwest 442 509 28,600 488 Climbing Indianapolis Center
Thu 09:10:54 AM 40.1481 -84.5667 208° Southwest 446 513 29,100 484 Climbing Indianapolis Center
Thu 09:11:56 AM 40.0383 -84.6419 208° Southwest 444 511 29,600 435 Climbing Indianapolis Center
Thu 09:12:58 AM 39.9283 -84.7189 208° Southwest 445 512 30,000 194 Climbing Indianapolis Center
Thu 09:14:00 AM 39.8197 -84.7947 208° Southwest 442 509 30,000  Level Indianapolis Center
Thu 09:15:02 AM 39.7064 -84.8617 204° Southwest 443 510 30,000  Level Indianapolis Center
Thu 09:16:04 AM 39.5756 -84.9194 199° South 450 518 30,000 -48 Level Indianapolis Center
Thu 09:17:06 AM 39.4594 -84.9725 199° South 444 511 29,900 -871 Descending Indianapolis Center
Thu 09:18:08 AM 39.3414 -85.0269 200° South 448 516 28,200 -919 Descending Indianapolis Center
Thu 09:19:10 AM 39.2269 -85.0794 200° South 441 507 28,000 -97 Descending Indianapolis Center
Thu 09:20:12 AM 39.0894 -85.1411 199° South 436 502 28,000  Level Indianapolis Center
Thu 09:21:14 AM 38.9731 -85.1933 199° South 443 510 28,000  Level Indianapolis Center
Thu 09:22:16 AM 38.8556 -85.2458 199° South 445 512 28,000  Level Indianapolis Center
Thu 09:23:19 AM 38.7378 -85.2989 199° South 447 514 28,000  Level Indianapolis Center
Thu 09:24:21 AM 38.6183 -85.3508 199° South 451 519 28,000  Level Indianapolis Center
Thu 09:25:23 AM 38.4997 -85.4044 199° South 449 517 28,000  Level Indianapolis Center
Thu 09:26:25 AM 38.3778 -85.4578 199° South 454 522 28,000  Level Indianapolis Center
Thu 09:27:27 AM 38.2364 -85.5200 199° South 451 519 28,000  Level Indianapolis Center
Thu 09:28:29 AM 38.1181 -85.5725 199° South 448 516 28,000  Level Indianapolis Center
Thu 09:29:31 AM 38.0039 -85.6353 203° Southwest 445 512 28,000  Level Indianapolis Center
Thu 09:30:33 AM 37.8900 -85.7008 204° Southwest 446 513 28,000  Level Indianapolis Center
Thu 09:31:35 AM 37.7783 -85.7653 205° Southwest 441 507 28,000  Level Indianapolis Center
Thu 09:32:37 AM 37.6650 -85.8303 204° Southwest 441 507 28,000  Level Indianapolis Center
Thu 09:33:39 AM 37.5425 -85.9022 205° Southwest 435 501 28,000  Level Indianapolis Center
Thu 09:34:41 AM 37.4314 -85.9647 204° Southwest 432 497 28,000  Level Indianapolis Center
Thu 09:35:43 AM 37.3206 -86.0272 204° Southwest 432 497 28,000  Level Indianapolis Center
Thu 09:36:45 AM 37.2103 -86.0897 204° Southwest 430 495 28,000  Level Indianapolis Center
Thu 09:37:47 AM 37.0967 -86.1439 201° Southwest 433 498 28,000  Level Indianapolis Center
Thu 09:38:44 AM 36.9756 -86.1658 188° South 430 495 28,000  Level Memphis Center
Thu 09:39:44 AM 36.8453 -86.1958 190° South 438 504 28,000  Level Memphis Center
Thu 09:40:44 AM 36.7275 -86.2203 189° South 443 510 28,000  Level Memphis Center
Thu 09:41:44 AM 36.6075 -86.2469 190° South 449 517 28,000  Level Memphis Center
Thu 09:42:44 AM 36.4875 -86.2736 190° South 444 511 28,000  Level Memphis Center
Thu 09:43:44 AM 36.3672 -86.2978 189° South 444 511 28,000  Level Memphis Center
Thu 09:44:44 AM 36.2472 -86.3244 190° South 444 511 28,000  Level Memphis Center
Thu 09:45:44 AM 36.1417 -86.3475 190° South 444 511 28,000  Level Memphis Center
Thu 09:46:44 AM 36.0236 -86.3739 190° South 444 511 28,000  Level Memphis Center
Thu 09:47:44 AM 35.9036 -86.4003 190° South 444 511 28,000  Level Memphis Center
Thu 09:48:44 AM 35.7833 -86.4239 189° South 444 511 28,000  Level Memphis Center
Thu 09:50:58 AM 35.5167 -86.4806 190° South 445 512 28,000  Level Atlanta Center
Thu 09:51:58 AM 35.3908 -86.5100 191° South 439 505 28,000 -50 Level Atlanta Center
Thu 09:52:58 AM 35.2717 -86.5344 190° South 434 499 27,900 -818 Descending Atlanta Center
Thu 09:54:32 AM 35.0831 -86.5761 190° South 424 488 25,900 -1,169 Descending Memphis Center
Thu 09:55:32 AM 34.9692 -86.5992 189° South 424 488 24,900 -950 Descending Memphis Center
Thu 09:56:32 AM 34.8531 -86.6219 189° South 424 488 24,000 -700 Descending Memphis Center
Thu 09:57:32 AM 34.7431 -86.6469 191° South 424 488 23,500 -1,550 Descending Memphis Center
Thu 09:58:32 AM 34.6333 -86.6744 192° South 414 476 20,900 -2,550 Descending Memphis Center
Thu 09:59:32 AM 34.5297 -86.6967 190° South 403 464 18,400 -2,104 Descending Memphis Center
Thu 10:00:46 AM 34.4119 -86.7253 191° South 384 442 16,200 -1,925 Descending Atlanta Center
Thu 10:01:46 AM 34.3156 -86.7475 191° South 365 420 14,100 -2,050 Descending Atlanta Center
Thu 10:02:46 AM 34.2211 -86.7719 192° South 354 407 12,100 -1,550 Descending Atlanta Center
Thu 10:03:46 AM 34.1286 -86.7942 191° South 354 407 11,000 -550 Descending Atlanta Center
Thu 10:04:46 AM 34.0364 -86.8139 190° South 349 402 11,000 -110 Level Atlanta Center
Thu 10:05:35 AM 33.9650 -86.8364 195° South 315 362 10,800 -1,101 Descending Atlanta Center
Thu 10:06:35 AM 33.8872 -86.8539 191° South 285 328 9,000 -1,785 Descending Atlanta Center
Thu 10:07:36 AM 33.8117 -86.8764 194° South 276 318 7,200 -1,488 Descending Atlanta Center
Thu 10:08:36 AM 33.7422 -86.8967 194° South 264 304 6,000 -738 Descending Atlanta Center
Thu 10:09:46 AM 33.6750 -86.9144 192° South 256 295 5,600 -343 Descending Atlanta Center

Login

Don't have an account? Register now (free) for customized features, flight alerts, and more!